Ludington, MI

5:14 AM EDT on October 15, 2019 (GMT -0400)
Mason County

Weather History for KLDM - August, 2019

Change the Weather History Date:

Monday, August 5, 2019

  Actual Average Record
Temperature  
Mean Temperature 66 °F -  
Max Temperature 80 °F 79 °F 94 °F (1988)
Min Temperature 53 °F 56 °F 42 °F (1957)
Cooling Degree Days 2    
Growing Degree Days 16 (Base 50)    
Moisture  
Dew Point 62 °F    
Average Humidity 86    
Maximum Humidity 98    
Minimum Humidity 64    
Precipitation  
Precipitation 0.55 in - - ()
Sea Level Pressure  
Sea Level Pressure 29.92 in    
Wind  
Wind Speed 4 mph (SW)    
Max Wind Speed 23 mph    
Max Gust Speed 31 mph    
Visibility 9 miles    
Events Rain    
Averages and records for this station are not official NWS values.
T = Trace of Precipitation, MM = Missing Value Source: NWS Daily Summary

Daily Weather History Graph

Daily Weather History Graph

Search for Another Location

Airport or City:

Astronomy

Aug. 05, 2019 Rise Set
Actual Time 6:38 AM EDT 9:04 PM EDT
Civil Twilight 6:05 AM EDT 9:36 PM EDT
Nautical Twilight 5:25 AM EDT 10:17 PM EDT
Astronomical Twilight 4:39 AM EDT 11:02 PM EDT
Moon 12:03 PM EDT (8/5) No Moon Set
Length of Visible Light 15h 31m
Length of Day
14h 26m
Waxing Crescent, 28% of the Moon is Illuminated
Aug 5
Waxing Crescent
Aug 7
First Quarter
Aug 15
Full
Aug 23
Last Quarter
Aug 30
New

Hourly Weather History & Observations

Time (EDT) Temp. Heat Index Dew Point Humidity Pressure Visibility Wind Dir Wind Speed Gust Speed Precip Events Conditions
12:17 AM 55.0 °F - 53.1 °F 93% 29.99 in 10.0 mi Calm Calm - N/A   Clear
12:35 AM 55.6 °F - 54.1 °F 95% 29.99 in 10.0 mi Calm Calm - N/A   Clear
12:36 AM 55.8 °F - 54.5 °F 96% 29.99 in 10.0 mi Calm Calm - N/A   Clear
12:55 AM 55.2 °F - 54.0 °F 96% 30.00 in 10.0 mi Calm Calm - N/A   Clear
1:15 AM 55.4 °F - 54.7 °F 97% 30.00 in 10.0 mi Calm Calm - N/A   Clear
1:38 AM 55.9 °F - 55.0 °F 97% 30.00 in 10.0 mi Calm Calm - N/A   Clear
1:56 AM 54.1 °F - 53.4 °F 97% 30.00 in 10.0 mi Calm Calm - N/A   Clear
2:15 AM 54.1 °F - 53.2 °F 97% 29.99 in 10.0 mi Calm Calm - N/A   Clear
2:16 AM 54.1 °F - 53.1 °F 96% 29.99 in 10.0 mi Calm Calm - N/A   Clear
2:35 AM 55.4 °F - 54.7 °F 97% 30.00 in 10.0 mi Calm Calm - N/A   Clear
2:59 AM 55.2 °F - 54.3 °F 97% 30.00 in 10.0 mi Calm Calm - N/A   Clear
3:17 AM 53.1 °F - 52.3 °F 97% 30.00 in 10.0 mi Calm Calm - N/A   Clear
3:35 AM 54.5 °F - 53.8 °F 97% 30.00 in 10.0 mi Calm Calm - N/A   Clear
3:36 AM 54.5 °F - 53.8 °F 97% 30.00 in 10.0 mi Calm Calm - N/A   Clear
3:55 AM 53.6 °F - 52.7 °F 97% 29.99 in 10.0 mi Calm Calm - N/A   Clear
3:56 AM 53.6 °F - 52.7 °F 97% 29.99 in 10.0 mi Calm Calm - N/A   Clear
4:15 AM 54.7 °F - 54.0 °F 97% 30.00 in 10.0 mi Calm Calm - N/A   Clear
4:20 AM 54.3 °F - 53.6 °F 97% 29.99 in 10.0 mi Calm Calm - N/A   Clear
4:38 AM 54.1 °F - 53.2 °F 97% 29.99 in 10.0 mi Calm Calm - N/A   Clear
4:56 AM 53.8 °F - 52.9 °F 97% 29.98 in 10.0 mi Calm Calm - N/A   Clear
5:15 AM 54.3 °F - 53.1 °F 95% 29.97 in 10.0 mi Calm Calm - N/A   Clear
5:16 AM 54.1 °F - 52.9 °F 95% 29.97 in 10.0 mi Calm Calm - N/A   Clear
5:35 AM 53.8 °F - 52.9 °F 97% 29.96 in 10.0 mi Calm Calm - N/A   Clear
5:36 AM 54.0 °F - 53.1 °F 97% 29.96 in 10.0 mi Calm Calm - N/A   Clear
5:59 AM 55.4 °F - 53.8 °F 94% 29.96 in 10.0 mi Calm Calm - N/A   Clear
6:17 AM 55.8 °F - 54.0 °F 94% 29.96 in 10.0 mi Calm Calm - N/A   Clear
6:35 AM 55.0 °F - 53.6 °F 95% 29.96 in 10.0 mi Calm Calm - N/A   Clear
6:55 AM 54.0 °F - 52.9 °F 96% 29.96 in 10.0 mi Calm Calm - N/A   Clear
6:56 AM 53.8 °F - 52.7 °F 96% 29.96 in 10.0 mi Calm Calm - N/A   Clear
7:15 AM 54.7 °F - 53.8 °F 97% 29.96 in 10.0 mi Calm Calm - N/A   Clear
7:20 AM 55.4 °F - 54.3 °F 96% 29.96 in 10.0 mi East 3.5 mph - N/A   Clear
7:37 AM 57.0 °F - 55.8 °F 96% 29.97 in 10.0 mi Calm Calm - N/A   Clear
7:56 AM 59.4 °F - 56.8 °F 91% 29.97 in 10.0 mi Calm Calm - N/A   Clear
8:15 AM 62.8 °F - 59.4 °F 89% 29.96 in 10.0 mi Calm Calm - N/A   Clear
8:16 AM 63.0 °F - 59.7 °F 89% 29.96 in 10.0 mi Calm Calm - N/A   Clear
8:35 AM 70.5 °F - 64.8 °F 82% 29.96 in 10.0 mi SW 5.8 mph - N/A   Clear
8:36 AM 70.7 °F - 64.9 °F 82% 29.96 in 10.0 mi SW 6.9 mph - N/A   Clear
8:59 AM 72.0 °F - 65.7 °F 80% 29.96 in 10.0 mi SW 6.9 mph - N/A   Clear
9:17 AM 72.5 °F - 65.8 °F 80% 29.96 in 10.0 mi SW 9.2 mph - N/A   Clear
9:35 AM 73.6 °F - 67.3 °F 81% 29.96 in 10.0 mi SW 6.9 mph - N/A   Clear
9:36 AM 73.8 °F - 67.3 °F 80% 29.96 in 10.0 mi WSW 8.1 mph - N/A   Clear
9:55 AM 74.1 °F - 67.8 °F 81% 29.96 in 10.0 mi SW 10.4 mph - N/A   Clear
9:56 AM 74.1 °F - 67.6 °F 80% 29.96 in 10.0 mi SW 9.2 mph - N/A   Clear
10:15 AM 74.1 °F - 67.8 °F 81% 29.97 in 10.0 mi SW 9.2 mph - N/A   Clear
10:38 AM 75.6 °F - 68.0 °F 77% 29.97 in 10.0 mi SSW 9.2 mph - N/A   Clear
10:56 AM 75.7 °F - 68.5 °F 78% 29.96 in 10.0 mi WSW 8.1 mph 16.1 mph N/A   Clear
11:15 AM 76.8 °F - 69.3 °F 77% 29.96 in 10.0 mi SW 11.5 mph - N/A   Clear
11:16 AM 76.8 °F - 69.3 °F 77% 29.96 in 10.0 mi SW 11.5 mph 17.3 mph N/A   Clear
11:35 AM 76.6 °F - 68.9 °F 77% 29.96 in 10.0 mi SW 11.5 mph - N/A   Clear
11:36 AM 76.6 °F - 68.9 °F 77% 29.95 in 10.0 mi SW 11.5 mph - N/A   Clear
11:59 AM 77.4 °F - 69.4 °F 76% 29.95 in 10.0 mi SW 9.2 mph - N/A   Scattered Clouds
12:17 PM 77.2 °F - 69.1 °F 76% 29.94 in 10.0 mi SW 9.2 mph - N/A   Scattered Clouds
12:35 PM 77.9 °F - 68.9 °F 74% 29.93 in 10.0 mi SW 8.1 mph - N/A   Clear
12:55 PM 77.4 °F - 68.9 °F 75% 29.94 in 10.0 mi SW 11.5 mph 17.3 mph N/A   Clear
1:15 PM 77.7 °F - 69.1 °F 75% 29.94 in 10.0 mi SSW 10.4 mph - N/A   Clear
1:20 PM 77.5 °F - 68.9 °F 75% 29.93 in 10.0 mi SSW 11.5 mph - N/A   Clear
1:38 PM 77.9 °F - 69.1 °F 74% 29.93 in 10.0 mi SW 11.5 mph - N/A   Clear
1:56 PM 77.5 °F - 69.3 °F 76% 29.93 in 10.0 mi SW 10.4 mph - N/A   Clear
2:15 PM 77.9 °F - 69.4 °F 75% 29.92 in 10.0 mi SW 10.4 mph - N/A   Clear
2:35 PM 79.0 °F - 69.4 °F 72% 29.92 in 10.0 mi SW 13.8 mph 18.4 mph N/A   Clear
2:36 PM 79.2 °F - 69.3 °F 72% 29.92 in 10.0 mi SW 13.8 mph 18.4 mph N/A   Clear
3:17 PM 77.0 °F - 68.7 °F 75% 29.90 in 10.0 mi SW 12.7 mph - N/A   Mostly Cloudy
3:35 PM 78.6 °F - 68.7 °F 72% 29.89 in 10.0 mi SW 11.5 mph 18.4 mph N/A   Scattered Clouds
3:55 PM 80.1 °F 82.6 °F 67.8 °F 66% 29.87 in 10.0 mi SW 12.7 mph - N/A   Clear
3:56 PM 80.1 °F 82.7 °F 68.0 °F 67% 29.87 in 10.0 mi SSW 15.0 mph - N/A   Clear
4:15 PM 80.6 °F 83.2 °F 67.8 °F 65% 29.86 in 10.0 mi SW 15.0 mph - N/A   Clear
4:19 PM 80.2 °F 82.6 °F 66.9 °F 64% 29.86 in 10.0 mi SW 11.5 mph - N/A   Clear
4:38 PM 79.7 °F - 66.9 °F 65% 29.86 in 10.0 mi SW 15.0 mph - N/A   Clear
4:56 PM 78.1 °F - 66.2 °F 67% 29.86 in 10.0 mi SW 12.7 mph - N/A   Clear
5:15 PM 79.7 °F - 66.7 °F 64% 29.86 in 10.0 mi SW 11.5 mph - N/A   Clear
5:35 PM 79.5 °F - 67.1 °F 66% 29.85 in 10.0 mi SW 13.8 mph - N/A   Clear
5:36 PM 79.5 °F - 67.1 °F 66% 29.85 in 10.0 mi SW 12.7 mph - N/A   Clear
5:59 PM 78.8 °F - 66.7 °F 66% 29.84 in 10.0 mi SW 12.7 mph - N/A   Clear
6:17 PM 77.5 °F - 66.2 °F 68% 29.84 in 10.0 mi SW 13.8 mph 17.3 mph N/A   Scattered Clouds
6:35 PM 77.0 °F - 66.4 °F 70% 29.83 in 10.0 mi SW 13.8 mph 20.7 mph N/A   Scattered Clouds
6:55 PM 77.4 °F - 66.7 °F 70% 29.83 in 10.0 mi SW 8.1 mph - N/A   Scattered Clouds
6:56 PM 77.4 °F - 66.6 °F 69% 29.83 in 10.0 mi SW 8.1 mph - N/A   Scattered Clouds
7:15 PM 77.0 °F - 66.6 °F 70% 29.82 in 10.0 mi SSW 8.1 mph - N/A   Scattered Clouds
7:20 PM 77.0 °F - 66.4 °F 70% 29.82 in 10.0 mi SSW 11.5 mph - N/A   Scattered Clouds
7:38 PM 77.0 °F - 66.0 °F 69% 29.81 in 10.0 mi SSW 8.1 mph - N/A   Scattered Clouds
7:56 PM 73.8 °F - 65.7 °F 76% 29.83 in 10.0 mi NNW 23.0 mph 31.1 mph 0.02 in Rain Heavy Rain
8:15 PM 66.7 °F - 65.5 °F 96% 29.83 in 5.0 mi North 13.8 mph 20.7 mph 0.12 in Rain Heavy Rain
8:16 PM 66.7 °F - 65.5 °F 96% 29.83 in 5.0 mi North 13.8 mph 20.7 mph 0.12 in Rain Heavy Rain
8:35 PM 66.2 °F - 65.3 °F 97% 29.82 in 5.0 mi ENE 4.6 mph - 0.20 in Rain Rain
8:36 PM 66.2 °F - 65.3 °F 97% 29.82 in 5.0 mi ENE 4.6 mph - 0.20 in Rain Rain
8:58 PM 66.4 °F - 65.5 °F 97% 29.83 in 10.0 mi Calm Calm - 0.20 in Rain Light Rain
9:17 PM 66.4 °F - 65.5 °F 97% 29.83 in 10.0 mi Calm Calm - N/A Rain Light Rain
9:35 PM 66.6 °F - 65.7 °F 97% 29.84 in 10.0 mi Calm Calm - 0.01 in Rain Light Rain
9:55 PM 66.6 °F - 65.8 °F 98% 29.85 in 7.0 mi Calm Calm - 0.04 in Rain Rain
9:56 PM 66.6 °F - 65.8 °F 98% 29.85 in 7.0 mi Calm Calm - 0.04 in Rain Rain
10:15 PM 67.1 °F - 66.2 °F 97% 29.85 in 4.0 mi SSE 5.8 mph - 0.04 in Rain Heavy Rain
10:20 PM 67.1 °F - 66.2 °F 97% 29.85 in 4.0 mi SSE 5.8 mph - 0.05 in Rain Rain
10:38 PM 66.2 °F - 65.5 °F 98% 29.84 in 7.0 mi SE 6.9 mph - 0.09 in Rain Rain
10:56 PM 66.2 °F - 65.3 °F 97% 29.82 in 7.0 mi ESE 3.5 mph - 0.13 in Rain Rain
11:15 PM 65.7 °F - 64.9 °F 98% 29.81 in 10.0 mi Calm Calm - 0.03 in Rain Rain
11:16 PM 65.7 °F - 64.9 °F 98% 29.81 in 7.0 mi Calm Calm - 0.03 in Rain Rain
11:35 PM 66.2 °F - 65.5 °F 98% 29.80 in 5.0 mi South 12.7 mph - 0.09 in Rain Rain
11:36 PM 66.2 °F - 65.3 °F 97% 29.80 in 5.0 mi South 13.8 mph - 0.10 in Rain Rain
11:59 PM 66.6 °F - 64.9 °F 95% 29.80 in 7.0 mi WSW 3.5 mph - 0.16 in Rain Rain